TimeEST,TemperatureF,Dew PointF,Humidity,Sea Level PressureIn,VisibilityMPH,Wind Direction,Wind SpeedMPH,Gust SpeedMPH,PrecipitationIn,Events,Conditions,WindDirDegrees,DateUTC
12:00 AM,33.8,30.2,87,29.58,3.0,West,9.2,-,N/A,,Overcast,270,2013-02-28 05:00:00
12:27 AM,33.8,30.2,87,29.58,2.5,West,10.4,-,N/A,,Overcast,280,2013-02-28 05:27:00
12:53 AM,33.1,30.9,92,29.61,0.8,WNW,9.2,-,N/A,,Overcast,300,2013-02-28 05:53:00
1:10 AM,33.8,32.0,93,29.59,0.5,WNW,8.1,-,N/A,Fog,Fog,300,2013-02-28 06:10:00
2:01 AM,33.8,32.0,93,29.60,0.8,NW,8.1,-,N/A,,Mist,310,2013-02-28 07:01:00
2:11 AM,33.8,32.0,93,29.61,1.2,WNW,9.2,-,N/A,,Overcast,300,2013-02-28 07:11:00
2:27 AM,33.8,32.0,93,29.61,2.5,WNW,9.2,-,N/A,,Overcast,300,2013-02-28 07:27:00
2:34 AM,33.8,32.0,93,29.61,4.0,NW,8.1,-,N/A,,Overcast,310,2013-02-28 07:34:00
2:53 AM,33.1,32.0,96,29.63,6.0,NW,9.2,-,N/A,,Overcast,310,2013-02-28 07:53:00
3:09 AM,33.8,32.0,93,29.61,7.0,NW,8.1,-,N/A,,Overcast,310,2013-02-28 08:09:00
3:53 AM,34.0,30.9,89,29.65,9.0,NW,8.1,-,N/A,,Overcast,320,2013-02-28 08:53:00
4:53 AM,34.0,30.9,89,29.67,10.0,NNW,9.2,-,N/A,,Overcast,330,2013-02-28 09:53:00
5:53 AM,34.0,30.9,89,29.68,10.0,NNW,10.4,-,N/A,,Overcast,330,2013-02-28 10:53:00
6:36 AM,33.8,30.2,87,29.67,10.0,NW,10.4,-,N/A,,Overcast,320,2013-02-28 11:36:00
7:53 AM,34.0,30.0,85,29.73,10.0,NNW,12.7,-,N/A,,Overcast,340,2013-02-28 12:53:00
8:53 AM,34.0,28.9,82,29.76,10.0,North,15.0,-,N/A,,Overcast,350,2013-02-28 13:53:00
9:53 AM,34.0,28.9,82,29.78,10.0,NNW,10.4,-,N/A,,Overcast,340,2013-02-28 14:53:00
10:53 AM,35.1,28.9,78,29.80,10.0,NNW,13.8,-,N/A,,Overcast,340,2013-02-28 15:53:00
11:53 AM,35.1,30.0,82,29.82,10.0,NNW,12.7,-,N/A,,Overcast,340,2013-02-28 16:53:00
12:08 PM,35.6,30.2,81,29.80,10.0,NNW,11.5,-,N/A,,Overcast,340,2013-02-28 17:08:00
12:53 PM,36.0,30.0,79,29.83,10.0,NNW,10.4,-,N/A,,Overcast,330,2013-02-28 17:53:00
1:53 PM,37.0,30.0,76,29.83,10.0,North,13.8,-,N/A,,Overcast,350,2013-02-28 18:53:00
2:53 PM,37.0,28.9,73,29.84,10.0,NNW,12.7,-,N/A,,Overcast,340,2013-02-28 19:53:00
3:02 PM,37.4,28.4,70,29.83,10.0,NW,12.7,-,N/A,,Overcast,320,2013-02-28 20:02:00
3:34 PM,37.4,28.4,70,29.83,10.0,NNW,9.2,-,N/A,,Overcast,330,2013-02-28 20:34:00
4:53 PM,37.0,28.9,73,29.89,10.0,NNW,12.7,-,N/A,,Overcast,330,2013-02-28 21:53:00
5:04 PM,35.6,28.4,75,29.87,10.0,NW,12.7,-,N/A,,Overcast,320,2013-02-28 22:04:00
5:53 PM,35.1,28.0,76,29.91,10.0,NNW,11.5,-,N/A,,Overcast,330,2013-02-28 22:53:00
6:53 PM,34.0,28.0,79,29.95,10.0,NNW,9.2,-,N/A,,Overcast,330,2013-02-28 23:53:00
7:53 PM,33.1,28.0,82,29.97,10.0,NW,12.7,-,N/A,,Overcast,320,2013-03-01 00:53:00
8:50 PM,33.8,28.4,81,29.95,10.0,NW,12.7,-,N/A,,Overcast,310,2013-03-01 01:50:00
8:53 PM,33.1,28.0,82,29.98,9.0,NW,11.5,-,N/A,,Overcast,310,2013-03-01 01:53:00
9:53 PM,32.0,28.0,85,29.98,9.0,NNW,10.4,-,N/A,,Overcast,330,2013-03-01 02:53:00
10:16 PM,32.0,28.4,87,29.96,10.0,NNW,8.1,-,N/A,,Overcast,340,2013-03-01 03:16:00
10:26 PM,32.0,28.4,87,29.96,10.0,NNW,9.2,-,N/A,,Overcast,340,2013-03-01 03:26:00
10:53 PM,32.0,28.0,85,29.98,10.0,NNW,6.9,-,N/A,,Overcast,330,2013-03-01 03:53:00
11:09 PM,32.0,28.4,87,29.96,10.0,NNW,6.9,-,N/A,,Overcast,340,2013-03-01 04:09:00
11:37 PM,32.0,28.4,87,29.96,10.0,NNW,6.9,-,N/A,,Overcast,330,2013-03-01 04:37:00
11:53 PM,32.0,28.0,85,29.99,10.0,NNW,8.1,-,N/A,,Overcast,330,2013-03-01 04:53:00